EDT,Max TemperatureF,Mean TemperatureF,Min TemperatureF,Max Dew PointF,MeanDew PointF,Min DewpointF,Max Humidity, Mean Humidity, Min Humidity, Max Sea Level PressureIn, Mean Sea Level PressureIn, Min Sea Level PressureIn, Max VisibilityMiles, Mean VisibilityMiles, Min VisibilityMiles, Max Wind SpeedMPH, Mean Wind SpeedMPH, Max Gust SpeedMPH,PrecipitationIn, CloudCover, Events, WindDirDegrees
2012-10-1,71,65,59,68,61,55,100,87,73,29.94,29.89,29.86,10,9,5,12,3,,0.02,8,Rain,69
2012-10-2,87,78,69,77,73,70,100,91,55,29.99,29.88,29.82,10,7,2,12,6,18,0.58,5,Rain,154
2012-10-3,86,80,73,77,72,64,100,86,51,30.19,30.09,29.99,10,8,2,9,4,,0.00,5,Rain,189
2012-10-4,75,70,66,72,67,63,100,87,65,30.25,30.20,30.16,10,10,5,6,1,,0.04,2,Rain,237
2012-10-5,78,69,60,64,60,50,100,80,36,30.19,30.12,30.03,10,8,3,5,0,,0.00,0,,201
2012-10-6,84,70,55,64,59,55,100,75,37,30.03,29.96,29.88,10,9,4,10,1,16,0.00,1,,233
2012-10-7,64,58,53,64,52,46,100,79,59,30.14,30.04,29.97,10,10,5,12,4,16,0.00,6,Rain,6
2012-10-8,53,50,48,50,49,43,100,90,67,30.21,30.15,30.12,10,8,1,13,6,18,0.40,8,Rain,14
2012-10-9,55,52,50,55,51,50,100,95,82,30.16,30.11,30.08,10,8,2,8,4,,0.02,8,,354
2012-10-10,71,62,53,55,52,46,100,76,46,30.12,30.06,30.00,10,9,5,8,1,,0.00,3,,257
2012-10-11,68,57,46,54,43,37,100,66,37,30.31,30.24,30.12,10,10,10,9,2,16,0.00,0,,13
2012-10-12,73,58,42,50,46,43,100,73,33,30.32,30.23,30.17,10,10,7,7,1,,0.00,0,,347
2012-10-13,69,56,42,48,42,39,94,62,35,30.47,30.40,30.35,10,10,10,14,6,20,0.00,0,,55
2012-10-14,78,60,42,61,52,43,100,78,36,30.34,30.21,30.05,10,10,10,9,2,,0.00,1,,206
2012-10-15,77,66,55,70,61,50,100,87,57,30.04,29.87,29.72,10,10,5,9,2,,0.13,3,Rain,216
2012-10-16,69,58,46,50,44,37,94,64,31,29.97,29.91,29.85,10,10,10,7,2,,0.00,0,,335
2012-10-17,69,56,44,52,47,43,100,76,40,30.02,29.97,29.94,10,10,7,7,1,,0.00,0,,167
2012-10-18,78,61,44,68,56,45,100,85,54,29.95,29.87,29.81,10,10,3,13,2,17,0.05,2,Rain,152
2012-10-19,78,66,53,68,54,36,100,70,24,29.80,29.76,29.71,10,7,0,16,4,22,0.01,3,Fog-Rain,199
2012-10-20,71,58,44,50,44,37,100,65,29,29.96,29.84,29.78,10,10,10,9,1,,0.00,0,,264
2012-10-21,69,56,42,45,41,36,100,67,28,30.16,30.08,29.96,10,10,10,8,1,,0.00,0,,352
2012-10-22,73,56,39,48,43,39,100,68,29,30.25,30.19,30.15,10,10,10,6,0,,0.00,0,,299
2012-10-23,78,60,42,54,48,43,100,69,30,30.21,30.16,30.11,10,10,10,6,1,,0.00,0,,182
2012-10-24,80,63,46,57,51,45,100,71,30,30.21,30.15,30.10,10,10,10,7,1,,0.00,0,,195
2012-10-25,80,64,48,59,54,48,100,74,39,30.18,30.13,30.09,10,10,10,8,1,,0.00,0,,88
2012-10-26,71,63,55,64,60,55,100,85,68,30.12,30.02,29.92,10,8,1,13,6,20,0.00,5,,24
2012-10-27,68,65,62,63,58,54,94,79,64,29.90,29.75,29.66,10,10,10,17,10,28,0.00,6,,7
2012-10-28,64,60,55,54,49,45,82,64,52,29.65,29.59,29.55,10,10,10,15,11,25,0.00,6,,345
2012-10-29,57,50,42,48,40,34,94,72,54,29.57,29.49,29.37,10,10,5,15,10,28,0.04,8,Rain,302
2012-10-30,51,46,41,39,35,32,93,67,47,29.63,29.46,29.35,10,10,10,17,8,25,0.19,5,Rain,240
2012-10-31,55,45,35,37,34,32,100,62,41,29.79,29.70,29.63,10,10,10,9,4,,0.00,3,,242